Terminal Aerodrome Forecast
Issued by NWS Sterling, VA

Current Version | Previous Version | Graphics & Text | Print | Product List | Glossary On
Versions: 1 2 3 4 5 6 7 8 9 10 11 12 13 14 15 16 17 18 19 20 21 22 23
000
FTUS41 KLWX 191700
TAFIAD
TAF
KIAD 191720Z 1918/2024 31010G18KT P6SM BKN050
     FM192100 31009KT P6SM SCT050
     FM200000 33004KT P6SM SCT200
     FM200600 33004KT P6SM BKN100=

USA.gov is the U.S. government's official web portal to all federal, state and local government web resources and services.